Time,TemperatureF,DewpointF,PressureIn,WindDirection,WindDirectionDegrees,WindSpeedMPH,WindSpeedGustMPH,Humidity,HourlyPrecipIn,Conditions,Clouds,dailyrainin,SoftwareType,DateUTC
2013-07-26 00:03:00,67.0,56.1,30.07,North,0,3.0,8.0,68,0.00,,,-99.99,WeatherLink 5.7,2013-07-26 04:03:00,
2013-07-26 00:13:00,66.9,56.0,30.07,NE,45,4.0,9.0,68,0.00,,,-99.99,WeatherLink 5.7,2013-07-26 04:13:00,
2013-07-26 00:23:00,66.9,56.0,30.07,ENE,67,3.0,9.0,68,0.00,,,-99.99,WeatherLink 5.7,2013-07-26 04:23:00,
2013-07-26 00:33:00,66.9,56.0,30.07,ENE,67,4.0,11.0,68,0.00,,,-99.99,WeatherLink 5.7,2013-07-26 04:33:00,
2013-07-26 00:43:00,66.9,56.0,30.07,NNE,22,4.0,11.0,68,0.00,,,-99.99,WeatherLink 5.7,2013-07-26 04:43:00,
2013-07-26 00:53:00,66.9,55.6,30.06,NNE,22,4.0,11.0,67,0.00,,,-99.99,WeatherLink 5.7,2013-07-26 04:53:00,
2013-07-26 01:03:00,66.9,55.6,30.06,NNE,22,7.0,18.0,67,0.00,,,-99.99,WeatherLink 5.7,2013-07-26 05:03:00,
2013-07-26 01:13:00,66.8,55.5,30.06,NNE,22,5.0,11.0,67,0.00,,,-99.99,WeatherLink 5.7,2013-07-26 05:13:00,
2013-07-26 01:23:00,66.8,55.5,30.05,NE,45,4.0,10.0,67,0.00,,,-99.99,WeatherLink 5.7,2013-07-26 05:23:00,
2013-07-26 01:33:00,66.8,55.5,30.05,NNE,22,6.0,13.0,67,0.00,,,-99.99,WeatherLink 5.7,2013-07-26 05:33:00,
2013-07-26 01:43:00,66.8,55.5,30.05,NNE,22,6.0,13.0,67,0.00,,,-99.99,WeatherLink 5.7,2013-07-26 05:43:00,
2013-07-26 01:53:00,66.8,55.5,30.05,NE,45,7.0,16.0,67,0.00,,,-99.99,WeatherLink 5.7,2013-07-26 05:53:00,
2013-07-26 02:03:00,66.8,55.5,30.05,NE,45,6.0,14.0,67,0.00,,,-99.99,WeatherLink 5.7,2013-07-26 06:03:00,
2013-07-26 02:13:00,66.8,55.5,30.05,NNE,22,7.0,16.0,67,0.00,,,-99.99,WeatherLink 5.7,2013-07-26 06:13:00,
2013-07-26 02:23:00,66.8,55.9,30.04,NNE,22,8.0,16.0,68,0.00,,,-99.99,WeatherLink 5.7,2013-07-26 06:23:00,
2013-07-26 02:33:00,66.8,55.9,30.04,NNE,22,5.0,9.0,68,0.00,,,-99.99,WeatherLink 5.7,2013-07-26 06:33:00,
2013-07-26 02:43:00,66.9,55.6,30.03,NNE,22,5.0,13.0,67,0.00,,,-99.99,WeatherLink 5.7,2013-07-26 06:43:00,
2013-07-26 02:53:00,67.0,56.1,30.03,NNE,22,4.0,10.0,68,0.00,,,-99.99,WeatherLink 5.7,2013-07-26 06:53:00,
2013-07-26 03:04:00,67.0,56.1,30.03,North,0,6.0,14.0,68,0.00,,,-99.99,WeatherLink 5.7,2013-07-26 07:04:00,
2013-07-26 03:14:00,66.9,56.0,30.04,North,0,8.0,15.0,68,0.00,,,-99.99,WeatherLink 5.7,2013-07-26 07:14:00,
2013-07-26 03:24:00,66.7,56.6,30.03,NNE,22,8.0,17.0,70,0.00,,,-99.99,WeatherLink 5.7,2013-07-26 07:24:00,
2013-07-26 03:34:00,66.6,56.5,30.04,NNE,22,5.0,15.0,70,0.00,,,-99.99,WeatherLink 5.7,2013-07-26 07:34:00,
2013-07-26 03:43:00,66.7,56.2,30.04,NE,45,5.0,12.0,69,0.00,,,-99.99,WeatherLink 5.7,2013-07-26 07:43:00,
2013-07-26 03:53:00,66.9,56.4,30.04,North,0,5.0,10.0,69,0.00,,,-99.99,WeatherLink 5.7,2013-07-26 07:53:00,
2013-07-26 04:03:00,66.9,56.0,30.03,North,0,5.0,10.0,68,0.00,,,-99.99,WeatherLink 5.7,2013-07-26 08:03:00,
2013-07-26 04:13:00,67.0,56.1,30.03,NNE,22,5.0,11.0,68,0.00,,,-99.99,WeatherLink 5.7,2013-07-26 08:13:00,
2013-07-26 04:23:00,67.1,56.2,30.03,NNW,337,4.0,10.0,68,0.00,,,-99.99,WeatherLink 5.7,2013-07-26 08:23:00,
2013-07-26 04:33:00,67.3,56.4,30.03,North,0,4.0,12.0,68,0.00,,,-99.99,WeatherLink 5.7,2013-07-26 08:33:00,
2013-07-26 04:43:00,67.1,56.6,30.03,North,0,6.0,13.0,69,0.00,,,-99.99,WeatherLink 5.7,2013-07-26 08:43:00,
2013-07-26 04:53:00,66.9,56.4,30.03,North,0,5.0,10.0,69,0.00,,,-99.99,WeatherLink 5.7,2013-07-26 08:53:00,
2013-07-26 05:03:00,66.9,56.8,30.03,North,0,5.0,11.0,70,0.00,,,-99.99,WeatherLink 5.7,2013-07-26 09:03:00,
2013-07-26 05:13:00,67.0,56.9,30.03,North,0,5.0,11.0,70,0.00,,,-99.99,WeatherLink 5.7,2013-07-26 09:13:00,
2013-07-26 05:23:00,67.0,56.9,30.04,North,0,4.0,12.0,70,0.00,,,-99.99,WeatherLink 5.7,2013-07-26 09:23:00,
2013-07-26 05:33:00,67.1,57.0,30.04,NNE,22,4.0,10.0,70,0.00,,,-99.99,WeatherLink 5.7,2013-07-26 09:33:00,
2013-07-26 05:43:00,67.2,56.7,30.04,North,0,6.0,13.0,69,0.00,,,-99.99,WeatherLink 5.7,2013-07-26 09:43:00,
2013-07-26 05:53:00,67.3,56.8,30.04,North,0,6.0,13.0,69,0.00,,,-99.99,WeatherLink 5.7,2013-07-26 09:53:00,
2013-07-26 06:03:00,67.4,56.9,30.04,North,0,7.0,14.0,69,0.00,,,-99.99,WeatherLink 5.7,2013-07-26 10:03:00,
2013-07-26 06:13:00,67.4,56.9,30.04,North,0,5.0,10.0,69,0.00,,,-99.99,WeatherLink 5.7,2013-07-26 10:13:00,
2013-07-26 06:23:00,67.4,56.9,30.04,North,0,5.0,11.0,69,0.00,,,-99.99,WeatherLink 5.7,2013-07-26 10:23:00,
2013-07-26 06:33:00,67.4,56.9,30.04,NNE,22,5.0,11.0,69,0.00,,,-99.99,WeatherLink 5.7,2013-07-26 10:33:00,
2013-07-26 06:43:00,67.5,57.0,30.05,North,0,4.0,9.0,69,0.00,,,-99.99,WeatherLink 5.7,2013-07-26 10:43:00,
2013-07-26 06:53:00,67.5,57.0,30.05,North,0,5.0,11.0,69,0.00,,,-99.99,WeatherLink 5.7,2013-07-26 10:53:00,
2013-07-26 07:03:00,67.5,57.0,30.05,North,0,5.0,10.0,69,0.00,,,-99.99,WeatherLink 5.7,2013-07-26 11:03:00,
2013-07-26 07:13:00,67.6,57.1,30.05,North,0,5.0,9.0,69,0.00,,,-99.99,WeatherLink 5.7,2013-07-26 11:13:00,
2013-07-26 07:23:00,67.7,57.6,30.05,North,0,4.0,7.0,70,0.00,,,-99.99,WeatherLink 5.7,2013-07-26 11:23:00,
2013-07-26 07:33:00,67.8,56.9,30.05,North,0,6.0,11.0,68,0.00,,,-99.99,WeatherLink 5.7,2013-07-26 11:33:00,
2013-07-26 07:43:00,67.9,57.4,30.05,North,0,5.0,9.0,69,0.00,,,-99.99,WeatherLink 5.7,2013-07-26 11:43:00,
2013-07-26 07:53:00,68.0,57.4,30.05,North,0,4.0,9.0,69,0.00,,,-99.99,WeatherLink 5.7,2013-07-26 11:53:00,
2013-07-26 08:03:00,68.1,57.1,30.05,North,0,4.0,7.0,68,0.00,,,-99.99,WeatherLink 5.7,2013-07-26 12:03:00,
2013-07-26 08:13:00,68.3,57.3,30.05,North,0,4.0,8.0,68,0.00,,,-99.99,WeatherLink 5.7,2013-07-26 12:13:00,
2013-07-26 08:23:00,68.3,56.9,30.06,North,0,4.0,8.0,67,0.00,,,-99.99,WeatherLink 5.7,2013-07-26 12:23:00,
2013-07-26 08:33:00,68.3,56.9,30.06,NW,315,5.0,11.0,67,0.00,,,-99.99,WeatherLink 5.7,2013-07-26 12:33:00,
2013-07-26 08:43:00,68.3,56.9,30.06,NW,315,3.0,8.0,67,0.00,,,-99.99,WeatherLink 5.7,2013-07-26 12:43:00,
2013-07-26 08:53:00,68.5,56.7,30.07,NNW,337,5.0,11.0,66,0.00,,,-99.99,WeatherLink 5.7,2013-07-26 12:53:00,
2013-07-26 09:03:00,68.7,56.5,30.06,North,0,4.0,9.0,65,0.00,,,-99.99,WeatherLink 5.7,2013-07-26 13:03:00,
2013-07-26 09:13:00,69.0,56.3,30.06,NNE,22,5.0,10.0,64,0.00,,,-99.99,WeatherLink 5.7,2013-07-26 13:13:00,
2013-07-26 09:23:00,69.5,56.3,30.06,North,0,5.0,11.0,63,0.00,,,-99.99,WeatherLink 5.7,2013-07-26 13:23:00,
2013-07-26 09:33:00,69.8,56.6,30.06,North,0,4.0,8.0,63,0.00,,,-99.99,WeatherLink 5.7,2013-07-26 13:33:00,
2013-07-26 09:43:00,70.0,56.4,30.07,North,0,4.0,7.0,62,0.00,,,-99.99,WeatherLink 5.7,2013-07-26 13:43:00,
2013-07-26 09:53:00,70.1,56.5,30.07,NNE,22,4.0,9.0,62,0.00,,,-99.99,WeatherLink 5.7,2013-07-26 13:53:00,
2013-07-26 10:03:00,70.0,56.8,30.07,NNW,337,4.0,11.0,63,0.00,,,-99.99,WeatherLink 5.7,2013-07-26 14:03:00,
2013-07-26 10:13:00,70.0,56.4,30.07,North,0,4.0,8.0,62,0.00,,,-99.99,WeatherLink 5.7,2013-07-26 14:13:00,
2013-07-26 10:23:00,70.3,56.2,30.08,NNW,337,3.0,10.0,61,0.00,,,-99.99,WeatherLink 5.7,2013-07-26 14:23:00,
2013-07-26 10:33:00,70.9,56.3,30.07,NNW,337,3.0,9.0,60,0.00,,,-99.99,WeatherLink 5.7,2013-07-26 14:33:00,
2013-07-26 10:43:00,71.3,56.7,30.07,North,0,5.0,13.0,60,0.00,,,-99.99,WeatherLink 5.7,2013-07-26 14:43:00,
2013-07-26 10:53:00,71.6,56.5,30.07,North,0,3.0,7.0,59,0.00,,,-99.99,WeatherLink 5.7,2013-07-26 14:53:00,
2013-07-26 11:03:00,71.6,56.5,30.08,NNW,337,2.0,7.0,59,0.00,,,-99.99,WeatherLink 5.7,2013-07-26 15:03:00,
2013-07-26 11:13:00,71.9,56.8,30.07,NNW,337,2.0,9.0,59,0.00,,,-99.99,WeatherLink 5.7,2013-07-26 15:13:00,
2013-07-26 11:23:00,72.0,56.4,30.08,NNW,337,3.0,7.0,58,0.00,,,-99.99,WeatherLink 5.7,2013-07-26 15:23:00,
2013-07-26 11:33:00,72.2,56.6,30.07,NNW,337,2.0,6.0,58,0.00,,,-99.99,WeatherLink 5.7,2013-07-26 15:33:00,
2013-07-26 11:43:00,72.8,56.7,30.07,NNW,337,2.0,5.0,57,0.00,,,-99.99,WeatherLink 5.7,2013-07-26 15:43:00,
2013-07-26 11:53:00,72.8,57.2,30.06,NNW,337,2.0,7.0,58,0.00,,,-99.99,WeatherLink 5.7,2013-07-26 15:53:00,
2013-07-26 12:03:00,73.1,57.0,30.07,NW,315,3.0,9.0,57,0.00,,,-99.99,WeatherLink 5.7,2013-07-26 16:03:00,
2013-07-26 12:13:00,73.5,56.8,30.06,NW,315,2.0,8.0,56,0.00,,,-99.99,WeatherLink 5.7,2013-07-26 16:13:00,
2013-07-26 12:23:00,74.4,57.2,30.06,NNW,337,3.0,9.0,55,0.00,,,-99.99,WeatherLink 5.7,2013-07-26 16:23:00,
2013-07-26 12:33:00,74.7,56.9,30.06,WNW,292,4.0,11.0,54,0.00,,,-99.99,WeatherLink 5.7,2013-07-26 16:33:00,
2013-07-26 12:43:00,74.8,57.0,30.06,West,270,3.0,10.0,54,0.00,,,-99.99,WeatherLink 5.7,2013-07-26 16:43:00,
2013-07-26 12:53:00,75.6,57.3,30.06,NNW,337,3.0,9.0,53,0.00,,,-99.99,WeatherLink 5.7,2013-07-26 16:53:00,
2013-07-26 13:03:00,76.4,57.5,30.05,WNW,292,2.0,7.0,52,0.00,,,-99.99,WeatherLink 5.7,2013-07-26 17:03:00,
2013-07-26 13:13:00,77.1,57.0,30.05,WNW,292,5.0,10.0,50,0.00,,,-99.99,WeatherLink 5.7,2013-07-26 17:13:00,
2013-07-26 13:23:00,77.2,56.0,30.05,NNW,337,4.0,9.0,48,0.00,,,-99.99,WeatherLink 5.7,2013-07-26 17:23:00,
2013-07-26 13:33:00,78.0,56.1,30.05,NW,315,4.0,10.0,47,0.00,,,-99.99,WeatherLink 5.7,2013-07-26 17:33:00,
2013-07-26 13:43:00,77.9,55.5,30.05,WNW,292,4.0,9.0,46,0.00,,,-99.99,WeatherLink 5.7,2013-07-26 17:43:00,
2013-07-26 13:53:00,77.7,55.3,30.05,NW,315,4.0,8.0,46,0.00,,,-99.99,WeatherLink 5.7,2013-07-26 17:53:00,
2013-07-26 14:03:00,78.0,54.9,30.05,NW,315,5.0,12.0,45,0.00,,,-99.99,WeatherLink 5.7,2013-07-26 18:03:00,
2013-07-26 14:13:00,78.4,54.7,30.05,WNW,292,5.0,10.0,44,0.00,,,-99.99,WeatherLink 5.7,2013-07-26 18:13:00,
2013-07-26 14:23:00,78.6,54.2,30.04,North,0,4.0,10.0,43,0.00,,,-99.99,WeatherLink 5.7,2013-07-26 18:23:00,
2013-07-26 14:33:00,78.9,54.5,30.04,WNW,292,3.0,9.0,43,0.00,,,-99.99,WeatherLink 5.7,2013-07-26 18:33:00,
2013-07-26 14:43:00,79.3,54.9,30.04,NW,315,3.0,8.0,43,0.00,,,-99.99,WeatherLink 5.7,2013-07-26 18:43:00,
2013-07-26 14:53:00,79.6,54.5,30.04,NW,315,3.0,9.0,42,0.00,,,-99.99,WeatherLink 5.7,2013-07-26 18:53:00,
2013-07-26 15:03:00,79.7,54.6,30.04,WSW,247,5.0,10.0,42,0.00,,,-99.99,WeatherLink 5.7,2013-07-26 19:03:00,
2013-07-26 15:13:00,79.7,53.9,30.04,WNW,292,1.0,6.0,41,0.00,,,-99.99,WeatherLink 5.7,2013-07-26 19:13:00,
2013-07-26 15:23:00,80.0,54.2,30.04,NW,315,4.0,9.0,41,0.00,,,-99.99,WeatherLink 5.7,2013-07-26 19:23:00,
2013-07-26 15:33:00,80.2,55.0,30.04,West,270,2.0,8.0,42,0.00,,,-99.99,WeatherLink 5.7,2013-07-26 19:33:00,
2013-07-26 15:43:00,81.0,54.4,30.04,SW,225,3.0,10.0,40,0.00,,,-99.99,WeatherLink 5.7,2013-07-26 19:43:00,
2013-07-26 15:53:00,80.9,55.0,30.03,West,270,2.0,7.0,41,0.00,,,-99.99,WeatherLink 5.7,2013-07-26 19:53:00,
2013-07-26 16:03:00,81.7,55.0,30.03,WSW,247,1.0,5.0,40,0.00,,,-99.99,WeatherLink 5.7,2013-07-26 20:03:00,
2013-07-26 16:13:00,82.0,56.6,30.03,WSW,247,3.0,12.0,42,0.00,,,-99.99,WeatherLink 5.7,2013-07-26 20:13:00,
2013-07-26 16:23:00,81.7,56.4,30.03,SW,225,3.0,8.0,42,0.00,,,-99.99,WeatherLink 5.7,2013-07-26 20:23:00,
2013-07-26 16:33:00,81.2,56.6,30.03,SW,225,2.0,8.0,43,0.00,,,-99.99,WeatherLink 5.7,2013-07-26 20:33:00,
2013-07-26 16:43:00,81.1,57.1,30.03,West,270,3.0,8.0,44,0.00,,,-99.99,WeatherLink 5.7,2013-07-26 20:43:00,
2013-07-26 16:53:00,81.5,56.2,30.03,WSW,247,5.0,11.0,42,0.00,,,-99.99,WeatherLink 5.7,2013-07-26 20:53:00,
2013-07-26 17:03:00,81.2,57.2,30.03,West,270,5.0,10.0,44,0.00,,,-99.99,WeatherLink 5.7,2013-07-26 21:03:00,
2013-07-26 17:13:00,81.2,56.6,30.03,WSW,247,3.0,8.0,43,0.00,,,-99.99,WeatherLink 5.7,2013-07-26 21:13:00,
2013-07-26 17:23:00,81.1,56.5,30.03,WSW,247,2.0,9.0,43,0.00,,,-99.99,WeatherLink 5.7,2013-07-26 21:23:00,
2013-07-26 17:33:00,81.4,56.1,30.03,SSW,202,3.0,9.0,42,0.00,,,-99.99,WeatherLink 5.7,2013-07-26 21:33:00,
2013-07-26 17:43:00,82.0,56.0,30.03,WSW,247,4.0,8.0,41,0.00,,,-99.99,WeatherLink 5.7,2013-07-26 21:43:00,
2013-07-26 17:53:00,81.8,55.8,30.02,SW,225,5.0,11.0,41,0.00,,,-99.99,WeatherLink 5.7,2013-07-26 21:53:00,
2013-07-26 18:03:00,81.5,56.2,30.02,SW,225,4.0,9.0,42,0.00,,,-99.99,WeatherLink 5.7,2013-07-26 22:03:00,
2013-07-26 18:13:00,81.4,54.8,30.03,WSW,247,5.0,12.0,40,0.00,,,-99.99,WeatherLink 5.7,2013-07-26 22:13:00,
2013-07-26 18:23:00,80.8,54.2,30.03,West,270,7.0,12.0,40,0.00,,,-99.99,WeatherLink 5.7,2013-07-26 22:23:00,
2013-07-26 18:33:00,80.8,54.2,30.03,West,270,4.0,10.0,40,0.00,,,-99.99,WeatherLink 5.7,2013-07-26 22:33:00,
2013-07-26 18:43:00,80.8,54.2,30.03,SW,225,4.0,11.0,40,0.00,,,-99.99,WeatherLink 5.7,2013-07-26 22:43:00,
2013-07-26 18:53:00,80.7,54.8,30.03,WSW,247,7.0,15.0,41,0.00,,,-99.99,WeatherLink 5.7,2013-07-26 22:53:00,
2013-07-26 19:03:00,80.5,54.6,30.04,SW,225,6.0,12.0,41,0.00,,,-99.99,WeatherLink 5.7,2013-07-26 23:03:00,
2013-07-26 19:13:00,80.3,55.1,30.03,SW,225,3.0,12.0,42,0.00,,,-99.99,WeatherLink 5.7,2013-07-26 23:13:00,
2013-07-26 19:23:00,80.4,55.2,30.04,West,270,3.0,8.0,42,0.00,,,-99.99,WeatherLink 5.7,2013-07-26 23:23:00,
2013-07-26 19:33:00,80.1,54.9,30.04,West,270,4.0,10.0,42,0.00,,,-99.99,WeatherLink 5.7,2013-07-26 23:33:00,
2013-07-26 19:43:00,79.8,55.3,30.04,West,270,2.0,6.0,43,0.00,,,-99.99,WeatherLink 5.7,2013-07-26 23:43:00,
2013-07-26 19:53:00,79.4,55.0,30.04,West,270,2.0,7.0,43,0.00,,,-99.99,WeatherLink 5.7,2013-07-26 23:53:00,
2013-07-26 20:03:00,78.9,54.5,30.04,West,270,2.0,7.0,43,0.00,,,-99.99,WeatherLink 5.7,2013-07-27 00:03:00,
2013-07-26 20:13:00,78.5,54.8,30.04,West,270,2.0,5.0,44,0.00,,,-99.99,WeatherLink 5.7,2013-07-27 00:13:00,
2013-07-26 20:23:00,78.1,54.4,30.04,WSW,247,3.0,6.0,44,0.00,,,-99.99,WeatherLink 5.7,2013-07-27 00:23:00,
2013-07-26 20:33:00,77.7,54.0,30.04,WSW,247,2.0,4.0,44,0.00,,,-99.99,WeatherLink 5.7,2013-07-27 00:33:00,
2013-07-26 20:43:00,77.3,54.3,30.04,WSW,247,1.0,3.0,45,0.00,,,-99.99,WeatherLink 5.7,2013-07-27 00:43:00,
2013-07-26 20:53:00,76.8,54.5,30.05,WSW,247,1.0,4.0,46,0.00,,,-99.99,WeatherLink 5.7,2013-07-27 00:53:00,
2013-07-26 21:03:00,76.6,54.9,30.05,WSW,247,1.0,4.0,47,0.00,,,-99.99,WeatherLink 5.7,2013-07-27 01:03:00,
2013-07-26 21:13:00,76.3,54.0,30.05,WSW,247,2.0,6.0,46,0.00,,,-99.99,WeatherLink 5.7,2013-07-27 01:13:00,
2013-07-26 21:23:00,76.2,54.5,30.06,WSW,247,2.0,5.0,47,0.00,,,-99.99,WeatherLink 5.7,2013-07-27 01:23:00,
2013-07-26 21:33:00,75.9,54.2,30.06,WSW,247,2.0,4.0,47,0.00,,,-99.99,WeatherLink 5.7,2013-07-27 01:33:00,
2013-07-26 21:43:00,75.4,54.3,30.06,WSW,247,1.0,4.0,48,0.00,,,-99.99,WeatherLink 5.7,2013-07-27 01:43:00,
2013-07-26 21:54:00,74.9,55.0,30.07,WSW,247,2.0,5.0,50,0.00,,,-99.99,WeatherLink 5.7,2013-07-27 01:54:00,
2013-07-26 22:03:00,74.7,54.8,30.07,WSW,247,1.0,5.0,50,0.00,,,-99.99,WeatherLink 5.7,2013-07-27 02:03:00,
2013-07-26 22:13:00,74.5,57.3,30.07,WSW,247,1.0,8.0,55,0.00,,,-99.99,WeatherLink 5.7,2013-07-27 02:13:00,
2013-07-26 22:23:00,74.3,59.5,30.07,SW,225,1.0,8.0,60,0.00,,,-99.99,WeatherLink 5.7,2013-07-27 02:23:00,
2013-07-26 22:33:00,74.1,60.7,30.07,SW,225,1.0,5.0,63,0.00,,,-99.99,WeatherLink 5.7,2013-07-27 02:33:00,
2013-07-26 22:43:00,73.8,60.9,30.07,SW,225,1.0,6.0,64,0.00,,,-99.99,WeatherLink 5.7,2013-07-27 02:43:00,
2013-07-26 22:53:00,73.6,61.5,30.07,SW,225,1.0,7.0,66,0.00,,,-99.99,WeatherLink 5.7,2013-07-27 02:53:00,
2013-07-26 23:03:00,73.3,61.7,30.07,SW,225,1.0,6.0,67,0.00,,,-99.99,WeatherLink 5.7,2013-07-27 03:03:00,
2013-07-26 23:13:00,73.1,61.9,30.07,SW,225,2.0,8.0,68,0.00,,,-99.99,WeatherLink 5.7,2013-07-27 03:13:00,
2013-07-26 23:23:00,72.8,62.4,30.08,SW,225,2.0,7.0,70,0.00,,,-99.99,WeatherLink 5.7,2013-07-27 03:23:00,
2013-07-26 23:33:00,72.6,62.3,30.08,SW,225,2.0,6.0,70,0.00,,,-99.99,WeatherLink 5.7,2013-07-27 03:33:00,
2013-07-26 23:43:00,72.2,62.7,30.08,SW,225,1.0,5.0,72,0.00,,,-99.99,WeatherLink 5.7,2013-07-27 03:43:00,
2013-07-26 23:53:00,72.0,62.5,30.08,SW,225,1.0,4.0,72,0.00,,,-99.99,WeatherLink 5.7,2013-07-27 03:53:00,